Regional Weather Roundup
Issued by NWS

Home | Current Version | Previous Version | Graphics & Text | Print | Product List | Glossary On
Versions: 1 2 3 4 5 6 7 8 9 10 11 12 13 14 15 16 17 18 19 20 21 22 23 24 25 26 27 28 29 30 31 32 33 34 35 36 37 38 39 40 41 42 43 44 45 46 47 48 49 50
000
ASUS43 KLMK 070810
RWRKY
KENTUCKY REGIONAL WEATHER ROUNDUP
NATIONAL WEATHER SERVICE LOUISVILLE KY
400 AM EDT TUE JUL 07 2015

NOTE "FAIR" INDICATES FEW OR NO CLOUDS BELOW 12,000 FEET
WITH NO SIGNIFICANT WEATHER AND/OR OBSTRUCTIONS TO VISIBILITY.

KYZ001>023-026-027-061>063-070>075-070900-
WESTERN AND SOUTH CENTRAL KENTUCKY

CITY           SKY/WX    TMP DP  RH WIND       PRES   REMARKS
PADUCAH        TSTM      74  71  91 S9        29.96F FOG
HENDERSON      MOCLDY    75  72  88 S8        29.96S
OWENSBORO      PTCLDY    76  74  93 S8        29.99F
HOPKINSVILLE   MOCLDY    75  73  94 SW3       30.02F
BOWLING GREEN  PTCLDY    76  71  85 S8        30.04F
GLASGOW        CLEAR     73  72  97 SW3       30.05S
$$

KYZ024-025-028>034-038-045-046-053-070900-
NORTH CENTRAL KENTUCKY

CITY           SKY/WX    TMP DP  RH WIND       PRES   REMARKS
LOUISVILLE/SDF MOCLDY    78  71  79 SW12      29.99S
LOUISVILLE/LOU PTCLDY    77  71  82 SW7       30.00S
FORT KNOX      CLEAR     74  71  90 S9        30.00F
$$

KYZ035>037-039>044-047>052-055>060-089>105-070900-
NORTHEAST KENTUCKY

CITY           SKY/WX    TMP DP  RH WIND       PRES   REMARKS
LEXINGTON      PTCLDY    72  69  90 S7        30.04S
COVINGTON      MOCLDY    73  69  87 S8        30.00S
FRANKFORT      MOCLDY    73  68  84 S5        30.02R
$$

KYZ054-064>069-076>088-106>120-070900-
SOUTHEAST KENTUCKY

CITY           SKY/WX    TMP DP  RH WIND       PRES   REMARKS
JACKSON        CLEAR     68  66  93 CALM      30.09S FOG
LONDON         CLEAR     69  64  84 CALM      30.09F
SOMERSET       PTCLDY    68  68 100 CALM      30.09R
MIDDLESBORO    CLOUDY    65  65 100 CALM      30.12S FOG
MONTICELLO     SUNNY     68  68 100 CALM      30.10S
$$



USA.gov is the U.S. government's official web portal to all federal, state and local government web resources and services.